South Hill, VA

10:02 AM EST on November 17, 2019 (GMT -0500)
Mecklenburg-Brunswick Regional

Weather History for KAVC - August, 2019

Change the Weather History Date:

Saturday, August 31, 2019

  Actual Average (WUND) Record (WUND)
Temperature  
Mean Temperature 74 °F -  
Max Temperature 91 °F - - (-1)
Min Temperature 58 °F - - (-1)
Cooling Degree Days 10    
Growing Degree Days 24 (Base 50)    
Moisture  
Dew Point 63 °F    
Average Humidity 72    
Maximum Humidity 100    
Minimum Humidity 34    
Precipitation  
Precipitation 0.00 in - - ()
Sea Level Pressure  
Sea Level Pressure 30.22 in    
Wind  
Wind Speed 1 mph (SE)    
Max Wind Speed 9 mph    
Max Gust Speed -    
Visibility 10 miles    
Events      
Averages and records for this station are not official NWS values.
T = Trace of Precipitation, MM = Missing Value Source: NWS Daily Summary

Daily Weather History Graph

Daily Weather History Graph

Search for Another Location

Airport or City:

Astronomy

Aug. 31, 2019 Rise Set
Actual Time 6:42 AM EDT 7:42 PM EDT
Civil Twilight 6:15 AM EDT 8:08 PM EDT
Nautical Twilight 5:44 AM EDT 8:40 PM EDT
Astronomical Twilight 5:11 AM EDT 9:12 PM EDT
Moon 7:55 AM EDT (8/31) 8:55 PM EDT (8/31)
Length of Visible Light 13h 52m
Length of Day
12h 59m
New Moon, 2% of the Moon is Illuminated
Aug 31
New Moon
Sep 5
First Quarter
Sep 14
Full
Sep 21
Last Quarter
Sep 28
New

Hourly Weather History & Observations

Time (EDT) Temp. Heat Index Dew Point Humidity Pressure Visibility Wind Dir Wind Speed Gust Speed Precip Events Conditions
12:15 AM 62.6 °F - 62.6 °F 100% 30.20 in 10.0 mi Calm Calm - N/A   Clear
12:35 AM 63.9 °F - 63.1 °F 97% 30.21 in 10.0 mi Calm Calm - N/A   Clear
12:50 AM 62.2 °F - 62.2 °F 100% 30.21 in 10.0 mi Calm Calm - N/A   Clear
1:15 AM 62.1 °F - 62.1 °F 100% 30.22 in 10.0 mi Calm Calm - N/A   Clear
1:35 AM 61.5 °F - 61.5 °F 100% 30.21 in 10.0 mi Calm Calm - N/A   Clear
2:15 AM 60.8 °F - 60.8 °F 100% 30.21 in 10.0 mi Calm Calm - N/A   Clear
2:35 AM 60.3 °F - 60.3 °F 100% 30.20 in 10.0 mi Calm Calm - N/A   Clear
2:55 AM 59.9 °F - 59.9 °F 100% 30.20 in 10.0 mi Calm Calm - N/A   Clear
3:15 AM 59.9 °F - 59.9 °F 100% 30.20 in 10.0 mi Calm Calm - N/A   Clear
3:35 AM 60.3 °F - 60.3 °F 100% 30.20 in 10.0 mi Calm Calm - N/A   Clear
3:55 AM 60.8 °F - 60.8 °F 100% 30.20 in 10.0 mi Calm Calm - N/A   Clear
4:15 AM 59.4 °F - 59.4 °F 100% 30.20 in 10.0 mi Calm Calm - N/A   Clear
4:35 AM 59.4 °F - 59.4 °F 100% 30.20 in 10.0 mi Calm Calm - N/A   Clear
4:55 AM 59.2 °F - 59.2 °F 100% 30.20 in 10.0 mi Calm Calm - N/A   Clear
5:15 AM 61.2 °F - 61.2 °F 100% 30.20 in 10.0 mi Calm Calm - N/A   Clear
5:35 AM 59.0 °F - 59.0 °F 100% 30.21 in 10.0 mi Calm Calm - N/A   Clear
5:55 AM 59.2 °F - 59.2 °F 100% 30.20 in 10.0 mi Calm Calm - N/A   Clear
6:15 AM 59.2 °F - 59.2 °F 100% 30.21 in 10.0 mi Calm Calm - N/A   Clear
6:35 AM 58.8 °F - 58.8 °F 100% 30.21 in 10.0 mi Calm Calm - N/A   Clear
6:55 AM 58.6 °F - 58.6 °F 100% 30.22 in 10.0 mi Calm Calm - N/A   Clear
7:15 AM 59.9 °F - 59.9 °F 100% 30.22 in 10.0 mi Calm Calm - N/A   Clear
7:35 AM 60.6 °F - 60.6 °F 100% 30.23 in 10.0 mi Calm Calm - N/A   Clear
7:55 AM 61.7 °F - 61.7 °F 100% 30.23 in 10.0 mi Calm Calm - N/A   Clear
8:15 AM 65.8 °F - 65.3 °F 98% 30.23 in 10.0 mi Calm Calm - N/A   Clear
8:35 AM 69.3 °F - 67.3 °F 93% 30.24 in 10.0 mi Calm Calm - N/A   Clear
8:55 AM 72.5 °F - 66.9 °F 83% 30.25 in 10.0 mi Calm Calm - N/A   Clear
9:15 AM 75.2 °F - 67.1 °F 76% 30.24 in 10.0 mi Calm Calm - N/A   Clear
9:35 AM 77.4 °F - 67.1 °F 71% 30.24 in 10.0 mi Calm Calm - N/A   Clear
9:55 AM 79.7 °F - 67.1 °F 65% 30.25 in 10.0 mi Calm Calm - N/A   Clear
10:15 AM 80.6 °F 82.7 °F 65.8 °F 61% 30.25 in 10.0 mi Calm Calm - N/A   Clear
10:35 AM 82.9 °F 85.0 °F 66.0 °F 56% 30.25 in 10.0 mi Calm Calm - N/A   Clear
10:55 AM 83.8 °F 85.1 °F 64.2 °F 51% 30.25 in 10.0 mi Calm Calm - N/A   Clear
11:15 AM 85.8 °F 86.6 °F 62.8 °F 46% 30.24 in 10.0 mi North 5.8 mph - N/A   Clear
11:35 AM 86.2 °F 86.6 °F 61.9 °F 44% 30.24 in 10.0 mi NNW 3.5 mph - N/A   Clear
11:55 AM 86.9 °F 87.2 °F 61.9 °F 43% 30.24 in 10.0 mi Calm Calm - N/A   Clear
12:15 PM 88.3 °F 89.2 °F 63.3 °F 43% 30.24 in 10.0 mi ENE 4.6 mph - N/A   Clear
12:35 PM 88.5 °F 88.9 °F 61.7 °F 41% 30.24 in 10.0 mi South 3.5 mph - N/A   Clear
12:55 PM 88.3 °F 88.4 °F 61.5 °F 40% 30.24 in 10.0 mi ENE 3.5 mph - N/A   Clear
1:15 PM 88.5 °F 89.2 °F 62.4 °F 42% 30.23 in 10.0 mi South 4.6 mph - N/A   Clear
1:35 PM 90.3 °F 90.8 °F 62.1 °F 39% 30.23 in 10.0 mi ENE 3.5 mph - N/A   Clear
1:55 PM 89.8 °F 89.7 °F 61.2 °F 38% 30.23 in 10.0 mi ENE 3.5 mph - N/A   Clear
2:15 PM 90.9 °F 90.9 °F 61.2 °F 37% 30.22 in 10.0 mi SE 5.8 mph - N/A   Clear
2:35 PM 90.3 °F 89.3 °F 58.3 °F 34% 30.22 in 10.0 mi East 3.5 mph - N/A   Clear
2:55 PM 90.1 °F 90.2 °F 61.3 °F 38% 30.22 in 10.0 mi Calm Calm - N/A   Clear
3:15 PM 90.9 °F 91.3 °F 61.7 °F 38% 30.21 in 10.0 mi North 3.5 mph - N/A   Clear
3:35 PM 90.5 °F 90.7 °F 61.7 °F 38% 30.21 in 10.0 mi SE 3.5 mph - N/A   Clear
3:55 PM 91.0 °F 91.2 °F 61.3 °F 37% 30.20 in 10.0 mi ESE 3.5 mph - N/A   Scattered Clouds
4:15 PM 90.3 °F 89.9 °F 59.9 °F 36% 30.20 in 10.0 mi ESE 4.6 mph - N/A   Scattered Clouds
4:35 PM 90.3 °F 90.5 °F 61.9 °F 38% 30.20 in 10.0 mi SE 4.6 mph - N/A   Scattered Clouds
4:55 PM 90.3 °F 90.5 °F 61.2 °F 38% 30.20 in 10.0 mi East 3.5 mph - N/A   Scattered Clouds
5:15 PM 90.0 °F 90.3 °F 61.9 °F 39% 30.20 in 10.0 mi South 6.9 mph - N/A   Scattered Clouds
5:35 PM 88.2 °F 89.3 °F 64.0 °F 44% 30.20 in 10.0 mi South 9.2 mph - N/A   Scattered Clouds
5:55 PM 87.8 °F 89.4 °F 64.6 °F 46% 30.19 in 10.0 mi South 8.1 mph - N/A   Scattered Clouds
6:15 PM 87.4 °F 88.8 °F 64.6 °F 46% 30.20 in 10.0 mi South 4.6 mph - N/A   Clear
6:35 PM 85.8 °F 87.6 °F 65.1 °F 50% 30.20 in 10.0 mi South 5.8 mph - N/A   Clear
6:55 PM 84.7 °F 86.8 °F 65.8 °F 53% 30.20 in 10.0 mi South 4.6 mph - N/A   Clear
7:35 PM 80.6 °F 82.7 °F 66.0 °F 61% 30.21 in 10.0 mi South 4.6 mph - N/A   Clear
7:55 PM 79.5 °F - 66.2 °F 64% 30.20 in 10.0 mi Calm Calm - N/A   Clear
8:15 PM 76.5 °F - 66.9 °F 72% 30.20 in 10.0 mi Calm Calm - N/A   Clear
8:35 PM 74.8 °F - 67.5 °F 78% 30.21 in 10.0 mi Calm Calm - N/A   Clear
8:55 PM 73.9 °F - 67.3 °F 80% 30.21 in 10.0 mi Calm Calm - N/A   Clear
9:15 PM 72.5 °F - 68.0 °F 86% 30.22 in 10.0 mi SE 3.5 mph - N/A   Clear
9:35 PM 73.0 °F - 68.0 °F 84% 30.22 in 10.0 mi Calm Calm - N/A   Clear
9:55 PM 74.7 °F - 68.0 °F 80% 30.23 in 3.0 mi SE 3.5 mph - N/A   Clear
10:15 PM 72.7 °F - 67.8 °F 85% 30.24 in 10.0 mi Calm Calm - N/A   Clear
10:35 PM 70.7 °F - 68.0 °F 91% 30.24 in 10.0 mi Calm Calm - N/A   Clear
10:55 PM 70.2 °F - 68.0 °F 93% 30.25 in 10.0 mi Calm Calm - N/A   Clear
11:15 PM 72.5 °F - 67.6 °F 85% 30.26 in 7.0 mi Calm Calm - N/A   Clear
11:35 PM 71.6 °F - 67.3 °F 86% 30.26 in 5.0 mi SSE 3.5 mph - N/A   Clear
11:55 PM 70.7 °F - 67.3 °F 89% 30.27 in 10.0 mi SSE 3.5 mph - N/A   Clear